Location: Lansingburgh
(42.7845°N, 73.6696°W)
Time: 08:33:28
(UTC+00:00)

BlueWalker 3 - Pass Details

Date: 22 December 2025
Orbit: 451 x 463 km, 53.2° (Epoch: 18 January)

Event Time Altitude Azimuth Distance (km) Brightness Sun altitude
Exits shadow 09:42:59 12° 152° (SSE) 1,479 4.7 -28.3°
Maximum altitude 09:44:21 14° 128° (SE) 1,363 4.8 -28.0°
Drops below altitude 10° 09:46:15 10° 95° (E) 1,589 5.4 -27.7°
Sets 09:49:12 0° 70° (ENE) 2,471 6.4 -27.1°
